Location: ????????
(60.5616°N, 46.8254°E)
Time: 00:36:32
(UTC+00:00)

ATLAS 2AS CENTAUR R/B - Pass Details

Date: 18 February 2020
Orbit: 929 x 1283 km, 63.7° (Epoch: 27 March)

Event Time Altitude Azimuth Distance (km) Brightness Sun altitude
Exits shadow 21:21:01 28° 67° (ENE) 2,157 4.4 -40.9°
Drops below altitude 10° 21:24:21 10° 60° (ENE) 3,215 5.5 -40.9°
Sets 21:27:05 0° 58° (ENE) 4,147 6.2 -40.9°
